Memphis, TN

10:11 AM CDT on September 23, 2017 (GMT -0500)
Memphis International

Weather History for KMEM - June, 2011

Change the Weather History Date:

Monday, June 27, 2011

  Actual Average Record
Temperature  
Mean Temperature 85 °F 82 °F  
Max Temperature 92 °F 91 °F 103 °F (1954)
Min Temperature 77 °F 73 °F 59 °F (1958)
Degree Days  
Heating Degree Days 0 0  
Month to date heating degree days 0  
Since 1 June heating degree days 0  
Since 1 July heating degree days 2964  
Cooling Degree Days 20 17  
Month to date cooling degree days 519 389  
Year to date cooling degree days 895 710  
Since 1 June cooling degree days 519 389  
Growing Degree Days 34 (Base 50)    
Moisture  
Dew Point 72 °F    
Average Humidity 67    
Maximum Humidity 82    
Minimum Humidity 52    
Precipitation  
Precipitation 0.00 in 0.11 in 1.34 in (2013)
Month to date precipitation 3.30 3.27  
Year to date precipitation 31.98 27.55  
Snow  
Snow 0.00 in 0.00 in - ()
Month to date snowfall 0.0  
Since 1 June snowfall 0.0  
Since 1 July snowfall 3.8  
Snow Depth -    
Sea Level Pressure  
Sea Level Pressure 29.92 in    
Wind  
Wind Speed 10 mph (South)    
Max Wind Speed 26 mph    
Max Gust Speed 35 mph    
Visibility 10 miles    
Events      
T = Trace of Precipitation, MM = Missing Value Source: NWS Daily Summary

Daily Weather History Graph

Daily Weather History Graph

Search for Another Location

Airport or City:

Trip Planner

Search our weather history database for the weather conditions in past years. The results will help you decide how hot, cold, wet, or windy it might be!

Date:

Astronomy

Jun. 27, 2011 Rise Set
Actual Time 5:47 AM CDT 8:18 PM CDT
Civil Twilight 5:18 AM CDT 8:47 PM CDT
Nautical Twilight 4:41 AM CDT 9:24 PM CDT
Astronomical Twilight 4:00 AM CDT 10:04 PM CDT
Moon 2:36 AM CDT (6/27) 5:07 PM CDT (6/27)
Length of Visible Light 15h 29m
Length of Day
14h 30m
Waning Crescent, 14% of the Moon is Illuminated
Jun 27
Waning Crescent
Jul 1
New
Jul 8
First Quarter
Jul 15
Full
Jul 23
Last Quarter

Hourly Weather History & Observations

Time (CDT) Temp. Heat Index Dew Point Humidity Pressure Visibility Wind Dir Wind Speed Gust Speed Precip Events Conditions
12:54 AM 82.4 °F 87.2 °F 71.6 °F 70% 29.88 in 10.0 mi SE 6.9 mph - N/A   Clear
1:54 AM 82.0 °F 86.3 °F 71.1 °F 69% 29.88 in 10.0 mi SSE 6.9 mph - N/A   Clear
2:54 AM 81.0 °F 84.9 °F 71.1 °F 72% 29.88 in 10.0 mi SSE 8.1 mph - N/A   Partly Cloudy
3:54 AM 79.0 °F - 71.1 °F 77% 29.87 in 10.0 mi South 5.8 mph - N/A   Partly Cloudy
4:54 AM 79.0 °F - 71.1 °F 77% 29.87 in 10.0 mi South 8.1 mph - N/A   Scattered Clouds
5:54 AM 77.0 °F - 71.1 °F 82% 29.88 in 10.0 mi South 5.8 mph - N/A   Mostly Cloudy
6:54 AM 79.0 °F - 72.0 °F 79% 29.92 in 10.0 mi South 4.6 mph - N/A   Mostly Cloudy
7:54 AM 82.0 °F 87.4 °F 73.0 °F 74% 29.96 in 10.0 mi South 5.8 mph - N/A   Mostly Cloudy
8:54 AM 84.9 °F 91.4 °F 73.0 °F 67% 29.99 in 10.0 mi SW 10.4 mph 16.1 mph N/A   Mostly Cloudy
9:54 AM 86.0 °F 91.5 °F 71.1 °F 61% 29.98 in 10.0 mi SSW 10.4 mph - N/A   Mostly Cloudy
10:54 AM 87.1 °F 93.6 °F 72.0 °F 61% 29.97 in 10.0 mi SSW 11.5 mph - N/A   Overcast
11:54 AM 87.8 °F 93.8 °F 71.6 °F 58% 29.99 in 10.0 mi SSW 13.8 mph 20.7 mph N/A   Mostly Cloudy
12:54 PM 90.0 °F 96.9 °F 72.0 °F 55% 29.96 in 10.0 mi SSW 11.5 mph - N/A   Mostly Cloudy
1:54 PM 89.1 °F 95.0 °F 71.1 °F 55% 29.94 in 10.0 mi SSW 11.5 mph - N/A   Overcast
2:54 PM 91.0 °F 97.6 °F 71.1 °F 52% 29.90 in 10.0 mi South 21.9 mph 28.8 mph N/A   Overcast
3:54 PM 91.0 °F 97.6 °F 71.1 °F 52% 29.86 in 10.0 mi SSW 19.6 mph 32.2 mph N/A   Mostly Cloudy
4:54 PM 91.0 °F 97.6 °F 71.1 °F 52% 29.87 in 10.0 mi SSW 15.0 mph 25.3 mph N/A   Mostly Cloudy
5:54 PM 91.0 °F 99.3 °F 73.0 °F 55% 29.87 in 10.0 mi SSW 11.5 mph 18.4 mph N/A   Mostly Cloudy
6:54 PM 89.1 °F 97.0 °F 73.0 °F 59% 29.88 in 10.0 mi SSW 11.5 mph 18.4 mph N/A   Mostly Cloudy
7:54 PM 88.0 °F 94.7 °F 72.0 °F 59% 29.90 in 10.0 mi SSW 6.9 mph - N/A   Mostly Cloudy
8:54 PM 86.0 °F 93.0 °F 73.0 °F 65% 29.93 in 10.0 mi SSW 5.8 mph - N/A   Mostly Cloudy
9:54 PM 84.9 °F 90.7 °F 72.0 °F 65% 29.94 in 10.0 mi South 8.1 mph - N/A   Scattered Clouds
10:54 PM 84.9 °F 91.4 °F 73.0 °F 67% 29.96 in 10.0 mi South 9.2 mph - N/A   Mostly Cloudy
11:54 PM 84.0 °F 89.6 °F 72.0 °F 67% 29.95 in 10.0 mi SSW 9.2 mph - N/A   Mostly Cloudy